Home   Weather   Altstätten   Past weeks

Flag for Switzerland Past Weather in Altstätten, St. Gallen, Switzerland — Yesterday and Last 2 Weeks

Now
34 °F

Overcast.


Feels Like: 34 °F
Forecast: 24 / 39 °F
Wind: 2 mph from North

Location: Saint Gallen-Altenrhein

Current Time: Dec 3, 2016 at 11:03:05 pm

Latest Report: Dec 3, 2016 at 10:20 pm


Visibility: N/A

Pressure: 30.18 "Hg

Humidity: 93%

Dew Point: 32 °F

Location of AltstättenLocation

Past Weather in Altstätten — Graph

°F

Altstätten Temperature Yesterday

Maximum temperature yesterday: 39 °F (at 1:50 pm)
Minimum temperature yesterday: 27 °F (at 12:50 am)
Average temperature yesterday: 31 °F

High & Low Weather Summary for the Past Weeks

 TemperatureHumidityPressure
High70 °F (Nov 21, 12:20 pm)100% (Nov 19, 1:50 am)30.57 "Hg (Nov 19, 1:50 am)
Low23 °F (Nov 29, 7:20 am)26% (Nov 22, 12:20 am)29.56 "Hg (Nov 21, 11:50 am)
Average41 °F82%30.05 "Hg
* Reported Nov 18 9:20 pm — Dec 3 9:50 pm, Altstätten, Weather by CustomWeather, © 2016

Note: Actual official high and low records may vary slightly from our data, if they occured in-between our weather recording intervals... More about our weather records

Advertising

Altstätten Weather History for the Previous 24 Hours

Scroll right to see more
 ConditionsComfort  
Time TempWeatherWind HumidityBarometerVisibility
9:50 pm
Sat, Dec 3
36 °FOvercast.3 mph87%30.18 "HgN/A
9:20 pm34 °FPassing clouds.3 mph93%30.18 "HgN/A
8:50 pm32 °FPartly cloudy.1 mph93%30.18 "HgN/A
8:20 pm32 °FOvercast.2 mph93%30.15 "HgN/A
7:50 pm32 °FPassing clouds.3 mph87%30.15 "HgN/A
7:20 pm32 °FPassing clouds.3 mph87%30.15 "HgN/A
6:50 pm34 °FPartly cloudy.5 mph87%30.15 "HgN/A
6:20 pm34 °FPartly cloudy.6 mph87%30.15 "HgN/A
5:50 pm36 °FPassing clouds.5 mph75%30.15 "HgN/A
5:20 pm36 °FPassing clouds.3 mph81%30.15 "HgN/A
4:50 pm34 °FPassing clouds.1 mph87%30.12 "HgN/A
4:20 pm36 °FScattered clouds.2 mph81%30.12 "HgN/A
3:50 pm37 °FPassing clouds.3 mph81%30.12 "HgN/A
3:20 pm39 °FPassing clouds.3 mph70%30.12 "HgN/A
2:50 pm39 °FPassing clouds.6 mph70%30.09 "HgN/A
2:20 pm39 °FPassing clouds.3 mph75%30.09 "HgN/A
1:50 pm39 °FScattered clouds.5 mph75%30.12 "HgN/A
1:20 pm37 °FScattered clouds.5 mph81%30.12 "HgN/A
12:50 pm37 °FScattered clouds.2 mph81%30.12 "HgN/A
12:20 pm37 °FScattered clouds.2 mph75%30.12 "HgN/A
11:50 am39 °FScattered clouds.2 mph81%30.12 "HgN/A
11:20 am36 °FPartly sunny.2 mph87%30.12 "Hg4 mi
10:50 am32 °FPartly sunny.2 mph93%30.12 "Hg4 mi
10:20 am32 °FOvercast.5 mph93%30.12 "Hg6 mi
9:50 am30 °FPartly sunny.2 mph100%30.12 "Hg4 mi
9:20 am30 °FPartly sunny.2 mph100%30.12 "Hg4 mi
8:50 am30 °FOvercast.3 mph93%30.09 "Hg4 mi
8:20 am30 °FMore clouds than sun.2 mph93%30.09 "Hg3 mi
7:50 am28 °FMostly cloudy.2 mph100%30.09 "Hg3 mi
7:20 am30 °FPartly cloudy.2 mph93%30.09 "Hg5 mi
6:50 am30 °FPartly cloudy.2 mph93%30.09 "Hg5 mi
6:20 am28 °FPartly cloudy.5 mph100%30.09 "Hg3 mi
5:50 am28 °FPartly cloudy.1 mph100%30.09 "Hg4 mi
5:20 am28 °FPassing clouds.5 mph93%30.09 "Hg3 mi
4:50 am28 °FOvercast.2 mph93%30.09 "Hg3 mi
4:20 am28 °FOvercast.2 mph93%30.09 "Hg3 mi
3:50 am27 °FPassing clouds.2 mph100%30.09 "Hg3 mi
3:20 am27 °FClear.2 mph100%30.09 "Hg3 mi
2:50 am27 °FChilly.1 mph93%30.09 "Hg3 mi
2:20 am25 °FCold.2 mph100%30.12 "Hg3 mi
1:50 am27 °FPassing clouds.5 mph100%30.12 "Hg3 mi
1:20 am27 °FChilly.6 mph93%30.12 "Hg3 mi
12:50 am27 °FIce fog.5 mph100%30.12 "Hg3 mi
12:20 am28 °FIce fog.6 mph100%30.12 "Hg3 mi
11:50 pm
Fri, Dec 2
28 °FIce fog.3 mph100%30.12 "Hg2 mi
11:20 pm27 °FIce fog.2 mph100%30.12 "Hg2 mi
Weather by CustomWeather, © 2016

See weather overviewHow to use our weather pages